Zurück zum Katalog

ONEWEB-0093

AktivKommunikationPO
NORAD 45444·PAYLOAD·🇬🇧 United Kingdom

Gestartet Mar 21, 2020 von Baikonur Cosmodrome

Loading…

Nächste Überflüge (nächste 24 Stunden)

TLE

AktuellSource: CelesTrak SupGP

Epoche: Sep 15, 2026, 01:18 UTC

1 45444C 20020W   26258.05434444  .00001027  00000+0  29001-2 0  2587
2 45444  87.8984   3.2046 0002095 100.3546 306.1770 13.11418617    15

Verfolge ONEWEB-0093 in Echtzeit mit AllMySat

Download on the App Store